Date String (YYYY-MM-DD hh:mm:ss) UTC,Instrument flags,Ambient pressure (hPa),Sample flow (lpm),Bypass flow (lpm),Sample temperature (°C),Ambient temperature (°C),ASC tube jacket temperature (°C),LED temperature (°C),Box temperature (°C),Sample RH (%),Span deviation,Mass concentration (μg/m³),Mass concentration (μg/m³),Mass concentration (μg/m³)
DateTimeUTC,F1_M11,P_M11,Q1_M11,Q2_M11,T1_M11,T2_M11,T3_M11,T4_M11,T5_M11,U1_M11,ZSPAN_M11,X0_M11,X2_M11,X1_M11
2023-05-03 17:00:00,,0828.4,5.02,0.00,29.7,28.4,00.0,38.0,31.3,18.6,0000.0,0014.60,0005.40,0003.74
2023-05-03 17:01:00,,0828.4,4.99,0.00,29.7,28.4,00.0,38.1,31.3,18.4,0000.0,0015.35,0005.42,0003.77
2023-05-03 17:02:00,,0828.4,4.99,0.00,29.7,28.5,00.0,38.1,31.3,17.8,0000.0,0015.58,0005.39,0003.78
2023-05-03 17:03:00,,0828.4,5.00,0.00,29.7,28.5,00.0,38.1,31.3,18.1,0000.0,0015.54,0005.36,0003.80
2023-05-03 17:04:00,,0828.4,5.02,0.00,29.8,28.5,00.0,38.1,31.3,17.4,0000.0,0015.28,0005.31,0003.80
2023-05-03 17:05:00,,0828.4,4.99,0.00,29.7,28.4,00.0,38.1,31.3,17.1,0000.0,0015.19,0005.33,0003.82
2023-05-03 17:06:00,,0828.4,4.99,0.00,29.7,28.4,00.0,38.1,31.3,17.4,0000.0,0015.34,0005.30,0003.84
2023-05-03 17:07:00,,0828.4,5.00,0.00,29.8,28.4,00.0,38.1,31.3,17.7,0000.0,0015.41,0005.34,0003.91
2023-05-03 17:08:00,,0828.4,5.00,0.00,29.8,28.4,00.0,38.1,31.3,18.3,0000.0,0015.61,0005.43,0003.98
2023-05-03 17:09:00,,0828.4,5.01,0.00,29.8,28.5,00.0,38.1,31.4,18.5,0000.0,0015.90,0005.56,0004.03
2023-05-03 17:10:00,,0828.4,5.00,0.00,29.8,28.5,00.0,38.1,31.4,17.8,0000.0,0016.65,0005.66,0004.10
2023-05-03 17:11:00,,0828.4,5.01,0.00,29.8,28.5,00.0,38.1,31.4,17.8,0000.0,0017.01,0005.70,0004.16
2023-05-03 17:12:00,,0828.4,5.00,0.00,29.8,28.5,00.0,38.2,31.4,17.8,0000.0,0016.02,0005.78,0004.25
2023-05-03 17:13:00,,0828.4,5.00,0.00,29.9,28.6,00.0,38.2,31.4,18.1,0000.0,0015.36,0005.86,0004.31
2023-05-03 17:14:00,,0828.4,5.00,0.00,29.9,28.6,00.0,38.2,31.4,18.0,0000.0,0015.14,0005.97,0004.35
2023-05-03 17:15:00,,0828.4,5.00,0.00,29.9,28.6,00.0,38.2,31.4,17.5,0000.0,0015.47,0006.01,0004.37
2023-05-03 17:16:00,,0828.4,5.00,0.00,29.9,28.7,00.0,38.2,31.4,17.5,0000.0,0015.74,0006.02,0004.37
2023-05-03 17:17:00,,0828.3,5.00,0.00,29.9,28.7,00.0,38.2,31.4,17.8,0000.0,0015.49,0006.04,0004.36
2023-05-03 17:18:00,,0828.4,5.00,0.00,29.9,28.7,00.0,38.2,31.5,18.0,0000.0,0015.53,0006.01,0004.32
2023-05-03 17:19:00,,0828.3,5.00,0.00,29.9,28.7,00.0,38.2,31.5,17.4,0000.0,0015.82,0005.93,0004.27
2023-05-03 17:20:00,,0828.3,5.00,0.00,29.9,28.7,00.0,38.3,31.5,17.7,0000.0,0016.07,0005.83,0004.22
2023-05-03 17:21:00,,0828.3,5.00,0.00,29.9,28.7,00.0,38.3,31.5,17.7,0000.0,0015.43,0005.72,0004.15
2023-05-03 17:22:00,,0828.3,4.99,0.00,29.9,28.7,00.0,38.3,31.5,17.4,0000.0,0015.33,0005.70,0004.09
2023-05-03 17:23:00,,0828.2,4.99,0.00,29.9,28.7,00.0,38.3,31.5,17.8,0000.0,0015.92,0005.65,0004.02
2023-05-03 17:24:00,,0828.2,5.00,0.00,29.9,28.7,00.0,38.3,31.5,17.6,0000.0,0016.15,0005.64,0004.00
2023-05-03 17:25:00,,0828.2,5.01,0.00,30.0,28.7,00.0,38.3,31.5,16.6,0000.0,0016.33,0005.63,0003.99
2023-05-03 17:26:00,,0828.2,5.01,0.00,29.9,28.7,00.0,38.3,31.5,16.6,0000.0,0015.74,0005.60,0003.98
2023-05-03 17:27:00,,0828.2,5.00,0.00,30.0,28.7,00.0,38.3,31.5,16.9,0000.0,0016.02,0005.63,0004.00
2023-05-03 17:28:00,,0828.2,4.99,0.00,30.0,28.7,00.0,38.3,31.5,17.3,0000.0,0016.37,0005.65,0004.03
2023-05-03 17:29:00,,0828.2,5.00,0.00,30.0,28.7,00.0,38.3,31.5,16.8,0000.0,0016.05,0005.70,0004.07
2023-05-03 17:30:00,,0828.1,5.00,0.00,30.0,28.8,00.0,38.4,31.5,17.7,0000.0,0015.58,0005.74,0004.11
2023-05-03 17:31:00,,0828.1,5.00,0.00,30.0,28.8,00.0,38.4,31.5,17.7,0000.0,0015.58,0005.77,0004.14
2023-05-03 17:32:00,,0828.2,5.00,0.00,30.0,28.8,00.0,38.4,31.6,17.3,0000.0,0015.81,0005.80,0004.16
2023-05-03 17:33:00,,0828.1,5.00,0.00,30.0,28.8,00.0,38.4,31.5,17.1,0000.0,0015.24,0005.82,0004.17
2023-05-03 17:34:00,,0828.1,5.01,0.00,30.0,28.8,00.0,38.4,31.5,17.0,0000.0,0014.40,0005.82,0004.17
2023-05-03 17:35:00,,0828.1,4.99,0.00,30.0,28.8,00.0,38.4,31.5,16.9,0000.0,0014.44,0005.78,0004.14
2023-05-03 17:36:00,,0828.1,5.00,0.00,30.0,28.7,00.0,38.4,31.5,16.8,0000.0,0014.57,0005.68,0004.09
2023-05-03 17:37:00,,0828.1,5.00,0.00,30.0,28.7,00.0,38.4,31.5,16.2,0000.0,0014.99,0005.66,0004.06
2023-05-03 17:38:00,,0828.1,5.00,0.00,30.0,28.7,00.0,38.4,31.5,16.6,0000.0,0014.92,0005.62,0004.05
2023-05-03 17:39:00,,0828.0,5.00,0.00,30.0,28.7,00.0,38.4,31.5,16.9,0000.0,0014.55,0005.78,0004.17
2023-05-03 17:40:00,,0828.0,5.01,0.00,30.0,28.7,00.0,38.4,31.6,16.7,0003.0,0015.12,0005.96,0004.32
2023-05-03 17:41:00,,0827.9,5.00,0.00,30.0,28.7,00.0,38.4,31.6,16.3,0005.0,0015.39,0006.07,0004.44
2023-05-03 17:42:00,,0827.9,5.01,0.00,30.0,28.7,00.0,38.4,31.6,16.2,0005.1,0015.03,0006.16,0004.55
2023-05-03 17:43:00,,0827.8,5.00,0.00,30.0,28.7,00.0,38.4,31.7,16.6,0005.0,0015.07,0006.25,0004.66
2023-05-03 17:44:00,,0827.8,5.00,0.00,30.1,28.7,00.0,38.4,31.7,16.1,0005.0,0015.34,0006.25,0004.69
2023-05-03 17:45:00,,0827.9,5.00,0.00,30.1,28.7,00.0,38.4,31.6,15.6,0005.0,0015.35,0006.18,0004.68
2023-05-03 17:46:00,,0827.8,4.99,0.00,30.1,28.7,00.0,38.4,31.6,15.0,0005.0,0015.26,0006.17,0004.66
2023-05-03 17:47:00,,0827.8,5.00,0.00,30.1,28.8,00.0,38.4,31.6,14.6,0005.2,0014.89,0006.14,0004.63
2023-05-03 17:48:00,,0827.8,5.00,0.00,30.1,28.7,00.0,38.4,31.6,14.6,0005.0,0014.78,0006.10,0004.60
2023-05-03 17:49:00,,0827.8,5.00,0.00,30.0,28.7,00.0,38.5,31.6,13.8,0004.7,0015.04,0006.10,0004.55
2023-05-03 17:50:00,,0827.7,5.00,0.00,30.0,28.7,00.0,38.5,31.6,14.3,0002.3,0014.41,0005.88,0004.34
2023-05-03 17:51:00,,0827.8,5.00,0.00,30.1,28.8,00.0,38.5,31.6,14.7,0000.0,0013.99,0005.62,0004.09
2023-05-03 17:52:00,,0827.8,5.00,0.00,30.1,28.8,00.0,38.5,31.7,15.0,0000.0,0013.94,0005.42,0003.89
2023-05-03 17:53:00,,0827.8,5.00,0.00,30.1,28.8,00.0,38.5,31.7,16.0,0000.0,0013.92,0005.29,0003.73
2023-05-03 17:54:00,,0827.7,4.99,0.00,30.1,28.8,00.0,38.5,31.7,15.6,0000.0,0013.75,0005.16,0003.59
2023-05-03 17:55:00,,0827.8,5.00,0.00,30.1,28.9,00.0,38.5,31.7,14.7,0000.0,0013.44,0005.08,0003.51
2023-05-03 17:56:00,,0827.7,5.00,0.00,30.1,28.9,00.0,38.5,31.7,14.2,0000.0,0013.17,0005.06,0003.45
2023-05-03 17:57:00,,0827.7,5.01,0.00,30.1,28.9,00.0,38.5,31.7,14.4,0000.0,0013.53,0005.02,0003.42
2023-05-03 17:58:00,,0827.7,5.00,0.00,30.1,28.8,00.0,38.5,31.7,14.0,0000.0,0013.76,0005.00,0003.43
2023-05-03 17:59:00,,0827.7,5.00,0.00,30.2,28.9,00.0,38.5,31.7,14.5,0000.0,0013.20,0004.92,0003.42
